Time,TemperatureF,DewpointF,PressureIn,WindDirection,WindDirectionDegrees,WindSpeedMPH,WindSpeedGustMPH,Humidity,HourlyPrecipIn,Conditions,Clouds,dailyrainin,SoftwareType,DateUTC
2013-10-18 00:01:00,62.8,62.8,29.71,SSW,197,0.0,0.0,100,0.02,,-RA,0.06,VWS V14.01,2013-10-18 04:01:00,
2013-10-18 00:02:00,62.8,62.8,29.71,SSW,197,0.0,0.0,100,0.02,,-RA,0.00,VWS V14.01,2013-10-18 04:02:00,
2013-10-18 00:03:00,62.8,62.8,29.72,SSW,197,0.0,0.0,100,0.02,,-RA,0.00,VWS V14.01,2013-10-18 04:03:00,
2013-10-18 00:06:00,62.8,62.8,29.71,SSW,197,0.0,0.0,100,0.02,,-RA,0.00,VWS V14.01,2013-10-18 04:06:00,
2013-10-18 00:08:00,62.8,62.8,29.71,SSW,197,0.0,0.0,100,0.02,,-RA,0.00,VWS V14.01,2013-10-18 04:08:00,
2013-10-18 00:13:00,62.8,62.8,29.71,SSW,197,0.0,0.0,100,0.02,,-RA,0.00,VWS V14.01,2013-10-18 04:13:00,
2013-10-18 00:18:00,62.8,62.8,29.70,SSW,197,0.0,0.0,100,0.02,,-RA,0.00,VWS V14.01,2013-10-18 04:18:00,
2013-10-18 00:23:00,62.8,62.8,29.70,SSW,197,0.0,0.0,100,0.02,,-RA,0.00,VWS V14.01,2013-10-18 04:23:00,
2013-10-18 00:28:00,62.8,62.8,29.70,SSW,197,0.0,0.0,100,0.02,,-RA,0.00,VWS V14.01,2013-10-18 04:28:00,
2013-10-18 00:33:00,62.8,62.8,29.70,SSW,197,0.0,0.0,100,0.02,,-RA,0.00,VWS V14.01,2013-10-18 04:33:00,
2013-10-18 00:38:00,62.8,62.8,29.71,SSW,197,0.0,0.0,100,0.02,,-RA,0.00,VWS V14.01,2013-10-18 04:38:00,
2013-10-18 00:43:00,62.8,62.8,29.71,SSW,197,0.0,0.0,100,0.02,,-RA,0.00,VWS V14.01,2013-10-18 04:43:00,
2013-10-18 00:48:00,62.8,62.8,29.70,SSW,197,0.0,0.0,100,0.02,,-RA,0.00,VWS V14.01,2013-10-18 04:48:00,
2013-10-18 00:53:00,62.8,62.8,29.69,SSW,197,0.0,0.0,100,0.02,,-RA,0.00,VWS V14.01,2013-10-18 04:53:00,
2013-10-18 00:59:00,62.8,62.8,29.69,SSW,197,0.0,0.0,100,0.02,,-RA,0.00,VWS V14.01,2013-10-18 04:59:00,
2013-10-18 01:04:00,62.9,62.9,29.70,SSW,197,0.0,0.0,100,0.00,,-RA,0.00,VWS V14.01,2013-10-18 05:04:00,
2013-10-18 01:09:00,62.9,62.9,29.69,SSW,197,0.0,0.0,100,0.00,,-RA,0.00,VWS V14.01,2013-10-18 05:09:00,
2013-10-18 01:14:00,62.9,62.9,29.69,SSW,197,0.0,0.0,100,0.00,,-RA,0.00,VWS V14.01,2013-10-18 05:14:00,
2013-10-18 01:19:00,63.0,63.0,29.68,SSW,197,0.0,0.0,100,0.00,,-RA,0.00,VWS V14.01,2013-10-18 05:19:00,
2013-10-18 01:24:00,62.9,62.9,29.68,SSW,197,0.0,0.0,100,0.00,,-RA,0.00,VWS V14.01,2013-10-18 05:24:00,
2013-10-18 01:29:00,62.9,62.9,29.69,SSW,197,0.0,0.0,100,0.00,,-RA,0.00,VWS V14.01,2013-10-18 05:29:00,
2013-10-18 01:34:00,63.0,63.0,29.69,SSW,197,0.0,0.0,100,0.00,,-RA,0.00,VWS V14.01,2013-10-18 05:34:00,
2013-10-18 01:39:00,63.0,63.0,29.69,SSW,197,0.0,0.0,100,0.00,,-RA,0.00,VWS V14.01,2013-10-18 05:39:00,
2013-10-18 01:44:00,63.1,63.1,29.68,SSW,197,0.0,0.0,100,0.00,,-RA,0.00,VWS V14.01,2013-10-18 05:44:00,
2013-10-18 01:49:00,63.0,63.0,29.68,SSW,197,0.0,0.0,100,0.00,,-RA,0.00,VWS V14.01,2013-10-18 05:49:00,
2013-10-18 01:54:00,63.1,63.1,29.69,SSW,197,0.0,0.0,100,0.00,,-RA,0.00,VWS V14.01,2013-10-18 05:54:00,
2013-10-18 01:59:00,63.1,63.1,29.69,SSW,197,0.0,0.0,100,0.00,,-RA,0.00,VWS V14.01,2013-10-18 05:59:00,
2013-10-18 02:04:00,63.1,63.1,29.68,South,188,0.0,8.7,100,0.00,,OVC050,0.00,VWS V14.01,2013-10-18 06:04:00,
2013-10-18 02:09:00,63.2,63.2,29.68,South,188,0.0,8.7,100,0.00,,OVC050,0.00,VWS V14.01,2013-10-18 06:09:00,
2013-10-18 02:14:00,63.2,63.2,29.68,West,270,0.0,0.0,100,0.00,,OVC050,0.00,VWS V14.01,2013-10-18 06:14:00,
2013-10-18 02:19:00,63.2,63.2,29.68,West,270,0.0,0.0,100,0.00,,OVC050,0.00,VWS V14.01,2013-10-18 06:19:00,
2013-10-18 02:24:00,63.2,63.2,29.68,West,270,0.0,0.0,100,0.00,,OVC050,0.00,VWS V14.01,2013-10-18 06:24:00,
2013-10-18 02:29:00,63.2,63.2,29.69,West,270,0.0,0.0,100,0.00,,OVC050,0.00,VWS V14.01,2013-10-18 06:29:00,
2013-10-18 02:34:00,63.2,63.2,29.69,West,270,0.0,0.0,100,0.00,,OVC050,0.00,VWS V14.01,2013-10-18 06:34:00,
2013-10-18 02:39:00,63.2,63.2,29.68,West,270,0.0,0.0,100,0.00,,OVC050,0.00,VWS V14.01,2013-10-18 06:39:00,
2013-10-18 02:44:00,63.1,63.1,29.68,West,270,0.0,0.0,100,0.00,,OVC050,0.00,VWS V14.01,2013-10-18 06:44:00,
2013-10-18 02:49:00,63.0,63.0,29.69,West,270,0.0,0.0,100,0.00,,OVC050,0.00,VWS V14.01,2013-10-18 06:49:00,
2013-10-18 02:54:00,62.9,62.9,29.69,West,270,0.0,0.0,100,0.00,,OVC050,0.00,VWS V14.01,2013-10-18 06:54:00,
2013-10-18 02:59:00,62.9,62.9,29.68,West,270,0.0,0.0,100,0.00,,OVC050,0.00,VWS V14.01,2013-10-18 06:59:00,
2013-10-18 03:05:00,62.8,62.8,29.67,West,270,0.0,0.0,100,0.00,,BKN100,0.00,VWS V14.01,2013-10-18 07:05:00,
2013-10-18 03:10:00,62.6,62.6,29.68,West,270,0.0,0.0,100,0.00,,BKN100,0.00,VWS V14.01,2013-10-18 07:10:00,
2013-10-18 03:15:00,62.5,62.5,29.68,West,270,0.0,0.0,100,0.00,,BKN100,0.00,VWS V14.01,2013-10-18 07:15:00,
2013-10-18 03:20:00,62.5,62.5,29.69,West,270,0.0,0.0,100,0.00,,BKN100,0.00,VWS V14.01,2013-10-18 07:20:00,
2013-10-18 03:25:00,62.6,62.6,29.69,West,270,0.0,0.0,100,0.00,,BKN100,0.00,VWS V14.01,2013-10-18 07:25:00,
2013-10-18 03:30:00,62.6,62.6,29.68,West,270,0.0,0.0,100,0.00,,BKN100,0.00,VWS V14.01,2013-10-18 07:30:00,
2013-10-18 03:35:00,62.6,62.6,29.69,West,270,0.0,0.0,100,0.00,,BKN100,0.00,VWS V14.01,2013-10-18 07:35:00,
2013-10-18 03:40:00,62.5,62.5,29.69,West,270,0.0,0.0,100,0.00,,BKN100,0.00,VWS V14.01,2013-10-18 07:40:00,
2013-10-18 03:45:00,62.1,62.1,29.69,West,270,0.0,1.7,100,0.00,,BKN100,0.00,VWS V14.01,2013-10-18 07:45:00,
2013-10-18 03:50:00,61.7,61.7,29.69,SW,226,0.0,9.8,100,0.00,,BKN100,0.00,VWS V14.01,2013-10-18 07:50:00,
2013-10-18 03:55:00,61.4,61.4,29.71,SW,231,0.0,7.5,100,0.00,,BKN100,0.00,VWS V14.01,2013-10-18 07:55:00,
2013-10-18 04:00:00,60.8,60.8,29.71,NNW,336,0.0,7.5,100,0.00,,FEW110,0.00,VWS V14.01,2013-10-18 08:00:00,
2013-10-18 04:05:00,60.2,59.2,29.71,WNW,294,3.2,14.6,96,0.00,,FEW110,0.00,VWS V14.01,2013-10-18 08:05:00,
2013-10-18 04:10:00,60.1,58.3,29.71,SW,222,3.4,14.6,94,0.00,,FEW110,0.00,VWS V14.01,2013-10-18 08:10:00,
2013-10-18 04:15:00,60.2,58.0,29.71,SSW,200,0.0,3.4,92,0.00,,FEW110,0.00,VWS V14.01,2013-10-18 08:15:00,
2013-10-18 04:20:00,60.1,57.4,29.71,South,181,0.0,5.4,91,0.00,,FEW110,0.00,VWS V14.01,2013-10-18 08:20:00,
2013-10-18 04:25:00,59.9,57.0,29.72,West,280,0.0,6.2,90,0.00,,FEW110,0.00,VWS V14.01,2013-10-18 08:25:00,
2013-10-18 04:30:00,59.6,56.2,29.72,WNW,285,0.0,6.2,88,0.00,,FEW110,0.00,VWS V14.01,2013-10-18 08:30:00,
2013-10-18 04:35:00,59.5,56.3,29.72,WNW,285,0.0,0.0,89,0.00,,FEW110,0.00,VWS V14.01,2013-10-18 08:35:00,
2013-10-18 04:40:00,59.1,55.9,29.72,SW,218,0.0,6.0,89,0.00,,FEW110,0.00,VWS V14.01,2013-10-18 08:40:00,
2013-10-18 04:45:00,59.0,55.2,29.73,SW,236,6.1,7.8,87,0.00,,FEW110,0.00,VWS V14.01,2013-10-18 08:45:00,
2013-10-18 04:50:00,59.1,55.4,29.73,SW,219,0.0,7.8,88,0.00,,FEW110,0.00,VWS V14.01,2013-10-18 08:50:00,
2013-10-18 04:55:00,59.0,54.9,29.73,SE,134,0.0,7.4,86,0.00,,FEW110,0.00,VWS V14.01,2013-10-18 08:55:00,
2013-10-18 05:00:00,58.8,54.4,29.73,SW,221,0.0,7.4,85,0.00,,CLR,0.00,VWS V14.01,2013-10-18 09:00:00,
2013-10-18 05:05:00,58.9,54.2,29.73,SW,229,0.0,7.1,84,0.00,,CLR,0.00,VWS V14.01,2013-10-18 09:05:00,
2013-10-18 05:11:00,58.8,54.1,29.73,North,359,0.0,7.1,84,0.00,,CLR,0.00,VWS V14.01,2013-10-18 09:11:00,
2013-10-18 05:16:00,58.6,54.2,29.73,North,359,0.0,3.2,85,0.00,,CLR,0.00,VWS V14.01,2013-10-18 09:16:00,
2013-10-18 05:21:00,58.4,53.6,29.73,WNW,283,0.0,8.4,84,0.00,,CLR,0.00,VWS V14.01,2013-10-18 09:21:00,
2013-10-18 05:26:00,58.3,53.3,29.74,SW,222,0.0,9.3,83,0.00,,CLR,0.00,VWS V14.01,2013-10-18 09:26:00,
2013-10-18 05:31:00,58.3,53.2,29.74,WSW,257,3.0,9.3,83,0.00,,CLR,0.00,VWS V14.01,2013-10-18 09:31:00,
2013-10-18 05:36:00,58.4,53.2,29.75,WSW,257,0.0,0.0,83,0.00,,CLR,0.00,VWS V14.01,2013-10-18 09:36:00,
2013-10-18 05:41:00,58.3,52.9,29.74,West,276,0.0,5.8,82,0.00,,CLR,0.00,VWS V14.01,2013-10-18 09:41:00,
2013-10-18 05:46:00,58.2,52.9,29.74,WSW,240,0.0,5.8,82,0.00,,CLR,0.00,VWS V14.01,2013-10-18 09:46:00,
2013-10-18 05:51:00,58.1,52.6,29.75,WSW,248,4.3,5.8,82,0.00,,CLR,0.00,VWS V14.01,2013-10-18 09:51:00,
2013-10-18 05:56:00,58.1,52.6,29.75,WNW,284,0.0,6.7,82,0.00,,CLR,0.00,VWS V14.01,2013-10-18 09:56:00,
2013-10-18 06:01:00,57.9,52.6,29.75,West,266,0.0,6.7,82,0.00,,CLR,0.00,VWS V14.01,2013-10-18 10:01:00,
2013-10-18 06:06:00,57.9,52.5,29.76,SW,236,0.0,4.9,82,0.00,,CLR,0.00,VWS V14.01,2013-10-18 10:06:00,
2013-10-18 06:11:00,57.9,52.8,29.76,SW,236,0.0,0.0,83,0.00,,CLR,0.00,VWS V14.01,2013-10-18 10:11:00,
2013-10-18 06:16:00,57.7,52.8,29.76,SW,236,0.0,0.0,84,0.00,,CLR,0.00,VWS V14.01,2013-10-18 10:16:00,
2013-10-18 06:21:00,57.3,52.9,29.76,SW,236,0.0,0.0,85,0.00,,CLR,0.00,VWS V14.01,2013-10-18 10:21:00,
2013-10-18 06:26:00,57.0,52.8,29.76,SW,236,0.0,0.0,86,0.00,,CLR,0.00,VWS V14.01,2013-10-18 10:26:00,
2013-10-18 06:31:00,56.9,53.2,29.76,SW,236,0.0,0.0,87,0.00,,CLR,0.00,VWS V14.01,2013-10-18 10:31:00,
2013-10-18 06:36:00,56.6,52.8,29.76,WSW,239,0.0,6.2,87,0.00,,CLR,0.00,VWS V14.01,2013-10-18 10:36:00,
2013-10-18 06:41:00,56.5,52.8,29.76,WNW,298,0.0,0.0,87,0.00,,CLR,0.00,VWS V14.01,2013-10-18 10:41:00,
2013-10-18 06:46:00,56.4,52.7,29.76,West,263,0.0,6.1,87,0.00,,CLR,0.00,VWS V14.01,2013-10-18 10:46:00,
2013-10-18 06:51:00,56.5,52.8,29.77,West,266,0.0,0.0,87,0.00,,CLR,0.00,VWS V14.01,2013-10-18 10:51:00,
2013-10-18 06:56:00,56.5,53.0,29.77,West,266,0.0,0.0,88,0.00,,CLR,0.00,VWS V14.01,2013-10-18 10:56:00,
2013-10-18 07:01:00,56.3,52.7,29.77,West,271,0.0,0.0,88,0.00,,CLR,0.00,VWS V14.01,2013-10-18 11:01:00,
2013-10-18 07:06:00,56.3,52.6,29.78,SSW,202,0.0,9.2,87,0.00,,CLR,0.00,VWS V14.01,2013-10-18 11:06:00,
2013-10-18 07:12:00,56.4,52.5,29.78,SSW,202,0.0,0.0,87,0.00,,CLR,0.00,VWS V14.01,2013-10-18 11:12:00,
2013-10-18 07:17:00,56.4,52.5,29.79,SSW,202,0.0,0.0,87,0.00,,CLR,0.00,VWS V14.01,2013-10-18 11:17:00,
2013-10-18 07:22:00,56.4,52.7,29.79,SSW,202,0.0,0.0,88,0.00,,CLR,0.00,VWS V14.01,2013-10-18 11:22:00,
2013-10-18 07:27:00,56.2,52.4,29.79,WSW,238,3.1,4.5,87,0.00,,CLR,0.00,VWS V14.01,2013-10-18 11:27:00,
2013-10-18 07:32:00,56.2,52.3,29.79,South,186,0.0,0.0,87,0.00,,CLR,0.00,VWS V14.01,2013-10-18 11:32:00,
2013-10-18 07:37:00,56.1,52.1,29.79,SW,224,0.0,7.4,86,0.00,,CLR,0.00,VWS V14.01,2013-10-18 11:37:00,
2013-10-18 07:42:00,56.2,52.1,29.80,SW,224,0.0,0.0,86,0.00,,CLR,0.00,VWS V14.01,2013-10-18 11:42:00,
2013-10-18 07:47:00,56.2,52.2,29.80,SW,224,0.0,0.0,86,0.00,,CLR,0.00,VWS V14.01,2013-10-18 11:47:00,
2013-10-18 07:52:00,56.1,51.7,29.80,SW,224,0.0,0.0,85,0.00,,CLR,0.00,VWS V14.01,2013-10-18 11:52:00,
2013-10-18 07:57:00,56.2,51.7,29.81,SSE,152,0.0,5.9,85,0.00,,CLR,0.00,VWS V14.01,2013-10-18 11:57:00,
2013-10-18 08:02:00,56.4,51.4,29.81,NW,308,0.0,5.2,83,0.00,,CLR,0.00,VWS V14.01,2013-10-18 12:02:00,
2013-10-18 08:07:00,56.5,51.6,29.81,NW,308,0.0,5.2,84,0.00,,CLR,0.00,VWS V14.01,2013-10-18 12:07:00,
2013-10-18 08:12:00,56.5,51.3,29.81,ESE,117,0.0,4.9,83,0.00,,CLR,0.00,VWS V14.01,2013-10-18 12:12:00,
2013-10-18 08:17:00,56.6,51.3,29.81,WSW,240,0.0,6.3,82,0.00,,CLR,0.00,VWS V14.01,2013-10-18 12:17:00,
2013-10-18 08:22:00,56.6,51.0,29.82,West,278,7.6,8.9,82,0.00,,CLR,0.00,VWS V14.01,2013-10-18 12:22:00,
2013-10-18 08:27:00,56.8,50.7,29.82,WNW,294,0.0,8.9,80,0.00,,CLR,0.00,VWS V14.01,2013-10-18 12:27:00,
2013-10-18 08:32:00,56.9,50.4,29.82,NW,311,0.0,9.1,79,0.00,,CLR,0.00,VWS V14.01,2013-10-18 12:32:00,
2013-10-18 08:37:00,57.0,50.7,29.82,NW,311,0.0,9.1,80,0.00,,CLR,0.00,VWS V14.01,2013-10-18 12:37:00,
2013-10-18 08:42:00,56.9,50.5,29.83,SSW,207,7.9,9.4,79,0.00,,CLR,0.00,VWS V14.01,2013-10-18 12:42:00,
2013-10-18 08:47:00,57.1,50.5,29.83,SW,214,0.0,9.4,78,0.00,,CLR,0.00,VWS V14.01,2013-10-18 12:47:00,
2013-10-18 08:52:00,57.2,50.3,29.83,SE,134,0.0,0.0,78,0.00,,CLR,0.00,VWS V14.01,2013-10-18 12:52:00,
2013-10-18 08:57:00,57.3,50.2,29.84,NNW,332,5.2,7.9,77,0.00,,CLR,0.00,VWS V14.01,2013-10-18 12:57:00,
2013-10-18 09:02:00,57.6,49.9,29.84,West,260,0.0,0.0,76,0.00,,CLR,0.00,VWS V14.01,2013-10-18 13:02:00,
2013-10-18 09:07:00,57.7,49.6,29.84,West,260,0.0,0.0,74,0.00,,CLR,0.00,VWS V14.01,2013-10-18 13:07:00,
2013-10-18 09:12:00,57.8,49.0,29.84,SSE,152,4.3,7.1,72,0.00,,CLR,0.00,VWS V14.01,2013-10-18 13:12:00,
2013-10-18 09:18:00,57.9,48.5,29.85,SW,228,5.0,11.1,71,0.00,,CLR,0.00,VWS V14.01,2013-10-18 13:18:00,
2013-10-18 09:23:00,58.0,48.7,29.84,West,274,3.4,7.6,71,0.00,,CLR,0.00,VWS V14.01,2013-10-18 13:23:00,
2013-10-18 09:28:00,58.2,48.9,29.84,West,269,0.0,9.9,71,0.00,,CLR,0.00,VWS V14.01,2013-10-18 13:28:00,
2013-10-18 09:33:00,58.3,48.7,29.84,NNE,14,0.0,9.8,70,0.00,,CLR,0.00,VWS V14.01,2013-10-18 13:33:00,
2013-10-18 09:38:00,58.2,48.4,29.85,WSW,250,4.7,11.5,70,0.00,,CLR,0.00,VWS V14.01,2013-10-18 13:38:00,
2013-10-18 09:43:00,58.4,48.9,29.85,ENE,60,0.0,10.3,71,0.00,,CLR,0.00,VWS V14.01,2013-10-18 13:43:00,
2013-10-18 09:48:00,58.6,49.2,29.85,SSE,162,0.0,10.3,71,0.00,,CLR,0.00,VWS V14.01,2013-10-18 13:48:00,
2013-10-18 09:53:00,58.7,49.3,29.85,NW,308,0.0,6.3,71,0.00,,CLR,0.00,VWS V14.01,2013-10-18 13:53:00,
2013-10-18 09:58:00,58.7,49.9,29.85,WNW,290,3.5,7.7,72,0.00,,CLR,0.00,VWS V14.01,2013-10-18 13:58:00,
2013-10-18 10:03:00,58.7,49.3,29.85,West,263,0.0,7.2,71,0.00,,CLR,0.00,VWS V14.01,2013-10-18 14:03:00,
2013-10-18 10:08:00,58.7,48.7,29.85,NE,39,3.2,9.1,69,0.00,,CLR,0.00,VWS V14.01,2013-10-18 14:08:00,
2013-10-18 10:13:00,58.7,48.7,29.86,NW,312,3.0,12.2,69,0.00,,CLR,0.00,VWS V14.01,2013-10-18 14:13:00,
2013-10-18 10:18:00,59.0,49.2,29.85,SSW,198,0.0,12.2,70,0.00,,CLR,0.00,VWS V14.01,2013-10-18 14:18:00,
2013-10-18 10:23:00,58.9,48.6,29.85,WSW,255,7.5,9.9,69,0.00,,CLR,0.00,VWS V14.01,2013-10-18 14:23:00,
2013-10-18 10:28:00,59.0,48.9,29.86,WSW,246,0.0,9.9,69,0.00,,CLR,0.00,VWS V14.01,2013-10-18 14:28:00,
2013-10-18 10:34:00,58.9,48.5,29.86,West,278,0.0,8.5,68,0.00,,CLR,0.00,VWS V14.01,2013-10-18 14:34:00,
2013-10-18 10:39:00,58.8,48.3,29.86,SSW,197,0.0,16.0,68,0.00,,CLR,0.00,VWS V14.01,2013-10-18 14:39:00,
2013-10-18 10:44:00,59.1,49.6,29.86,SSW,197,0.0,0.0,71,0.00,,CLR,0.00,VWS V14.01,2013-10-18 14:44:00,
2013-10-18 10:49:00,59.1,48.8,29.86,South,191,4.8,12.2,69,0.00,,CLR,0.00,VWS V14.01,2013-10-18 14:49:00,
2013-10-18 10:54:00,59.2,49.4,29.86,ENE,59,0.0,8.3,70,0.00,,CLR,0.00,VWS V14.01,2013-10-18 14:54:00,
2013-10-18 10:59:00,59.4,49.5,29.86,WNW,292,0.0,11.6,70,0.00,,CLR,0.00,VWS V14.01,2013-10-18 14:59:00,
2013-10-18 11:04:00,59.4,49.4,29.87,East,89,0.0,3.0,69,0.00,,CLR,0.00,VWS V14.01,2013-10-18 15:04:00,
2013-10-18 11:09:00,59.6,48.8,29.86,South,183,0.0,7.8,67,0.00,,CLR,0.00,VWS V14.01,2013-10-18 15:09:00,
2013-10-18 11:14:00,59.5,47.9,29.87,North,11,3.1,9.2,66,0.00,,CLR,0.00,VWS V14.01,2013-10-18 15:14:00,
2013-10-18 11:19:00,59.6,48.1,29.86,East,90,0.0,9.2,66,0.00,,CLR,0.00,VWS V14.01,2013-10-18 15:19:00,
2013-10-18 11:24:00,59.7,49.6,29.87,ENE,69,0.0,5.0,69,0.00,,CLR,0.00,VWS V14.01,2013-10-18 15:24:00,
2013-10-18 11:29:00,59.7,48.3,29.87,SW,236,3.5,9.4,66,0.00,,CLR,0.00,VWS V14.01,2013-10-18 15:29:00,
2013-10-18 11:34:00,60.1,48.4,29.87,SW,226,0.0,10.4,65,0.00,,CLR,0.00,VWS V14.01,2013-10-18 15:34:00,
2013-10-18 11:40:00,60.3,49.3,29.87,NNE,24,0.0,10.4,67,0.00,,CLR,0.00,VWS V14.01,2013-10-18 15:40:00,
2013-10-18 11:45:00,60.1,48.2,29.87,South,169,3.4,10.3,65,0.00,,CLR,0.00,VWS V14.01,2013-10-18 15:45:00,
2013-10-18 11:50:00,60.4,48.0,29.87,East,89,4.9,12.1,64,0.00,,CLR,0.00,VWS V14.01,2013-10-18 15:50:00,
2013-10-18 11:55:00,60.4,48.1,29.87,SW,229,0.0,11.3,64,0.00,,CLR,0.00,VWS V14.01,2013-10-18 15:55:00,
2013-10-18 12:01:00,60.4,47.8,29.87,South,172,4.3,12.7,63,0.00,,CLR,0.00,VWS V14.01,2013-10-18 16:01:00,
2013-10-18 12:06:00,60.5,48.6,29.87,West,263,9.9,15.5,65,0.00,,CLR,0.00,VWS V14.01,2013-10-18 16:06:00,
2013-10-18 12:11:00,60.6,48.2,29.87,SW,214,0.0,15.5,64,0.00,,CLR,0.00,VWS V14.01,2013-10-18 16:11:00,
2013-10-18 12:16:00,61.0,49.0,29.87,SSE,152,0.0,7.6,64,0.00,,CLR,0.00,VWS V14.01,2013-10-18 16:16:00,
2013-10-18 12:21:00,61.3,49.7,29.87,SW,228,0.0,12.4,66,0.00,,CLR,0.00,VWS V14.01,2013-10-18 16:21:00,
2013-10-18 12:26:00,61.3,48.3,29.87,SW,222,9.8,10.9,62,0.00,,CLR,0.00,VWS V14.01,2013-10-18 16:26:00,
2013-10-18 12:31:00,61.5,48.8,29.87,NE,39,6.3,6.5,63,0.00,,CLR,0.00,VWS V14.01,2013-10-18 16:31:00,
2013-10-18 12:36:00,61.4,48.3,29.87,NE,35,0.0,8.9,62,0.00,,CLR,0.00,VWS V14.01,2013-10-18 16:36:00,
2013-10-18 12:41:00,61.5,48.4,29.87,SW,225,0.0,0.0,62,0.00,,CLR,0.00,VWS V14.01,2013-10-18 16:41:00,
2013-10-18 12:46:00,61.7,49.5,29.87,East,93,0.0,6.5,64,0.00,,CLR,0.00,VWS V14.01,2013-10-18 16:46:00,
2013-10-18 12:51:00,62.2,50.1,29.87,NNW,330,0.0,0.0,65,0.00,,CLR,0.00,VWS V14.01,2013-10-18 16:51:00,
2013-10-18 12:56:00,62.3,48.6,29.87,SE,138,4.9,13.4,61,0.00,,CLR,0.00,VWS V14.01,2013-10-18 16:56:00,
2013-10-18 13:01:00,62.7,49.8,29.87,NNW,343,0.0,0.0,63,0.00,,BKN043,0.00,VWS V14.01,2013-10-18 17:01:00,
2013-10-18 13:06:00,62.6,49.2,29.87,WSW,240,0.0,9.5,61,0.00,,BKN043,0.00,VWS V14.01,2013-10-18 17:06:00,
2013-10-18 13:11:00,62.5,49.7,29.86,SSW,210,4.2,4.2,63,0.00,,BKN043,0.00,VWS V14.01,2013-10-18 17:11:00,
2013-10-18 13:16:00,62.5,49.2,29.86,ENE,70,0.0,10.8,62,0.00,,BKN043,0.00,VWS V14.01,2013-10-18 17:16:00,
2013-10-18 13:21:00,63.1,50.0,29.86,NE,48,0.0,0.0,62,0.00,,BKN043,0.00,VWS V14.01,2013-10-18 17:21:00,
2013-10-18 13:26:00,63.2,50.1,29.86,WNW,288,0.0,5.3,62,0.00,,BKN043,0.00,VWS V14.01,2013-10-18 17:26:00,
2013-10-18 13:31:00,63.2,49.2,29.86,NE,51,0.0,0.0,60,0.00,,BKN043,0.00,VWS V14.01,2013-10-18 17:31:00,
2013-10-18 13:37:00,63.7,50.4,29.86,NE,51,0.0,0.0,62,0.00,,BKN043,0.00,VWS V14.01,2013-10-18 17:37:00,
2013-10-18 13:38:00,63.8,49.8,29.86,NE,51,0.0,0.0,60,0.00,,BKN043,0.00,VWS V14.01,2013-10-18 17:38:00,
2013-10-18 13:43:00,64.4,50.9,29.86,NE,51,0.0,0.0,62,0.00,,BKN043,0.00,VWS V14.01,2013-10-18 17:43:00,
2013-10-18 13:48:00,64.7,49.6,29.86,ENE,75,4.7,10.7,58,0.00,,BKN043,0.00,VWS V14.01,2013-10-18 17:48:00,
2013-10-18 13:53:00,64.4,48.7,29.86,WSW,256,0.0,11.0,57,0.00,,BKN043,0.00,VWS V14.01,2013-10-18 17:53:00,
2013-10-18 13:58:00,64.6,49.5,29.86,ENE,75,7.8,11.0,58,0.00,,BKN043,0.00,VWS V14.01,2013-10-18 17:58:00,
2013-10-18 14:03:00,64.6,48.6,29.86,SW,217,0.0,2.5,56,0.00,,FEW046,0.00,VWS V14.01,2013-10-18 18:03:00,
2013-10-18 14:08:00,64.9,48.5,29.86,WNW,285,0.0,10.9,55,0.00,,FEW046,0.00,VWS V14.01,2013-10-18 18:08:00,
2013-10-18 14:13:00,65.1,48.2,29.86,North,6,5.0,7.6,54,0.00,,FEW046,0.00,VWS V14.01,2013-10-18 18:13:00,
2013-10-18 14:18:00,65.2,47.7,29.86,West,270,0.0,10.1,53,0.00,,FEW046,0.00,VWS V14.01,2013-10-18 18:18:00,
2013-10-18 14:23:00,65.3,47.3,29.86,East,101,3.2,8.4,52,0.00,,FEW046,0.00,VWS V14.01,2013-10-18 18:23:00,
2013-10-18 14:28:00,65.7,48.5,29.86,NE,42,0.0,8.8,54,0.00,,FEW046,0.00,VWS V14.01,2013-10-18 18:28:00,
2013-10-18 14:33:00,65.4,46.8,29.86,SW,221,0.0,13.5,51,0.00,,FEW046,0.00,VWS V14.01,2013-10-18 18:33:00,
2013-10-18 14:38:00,65.7,48.1,29.86,SSW,211,0.0,13.5,53,0.00,,FEW046,0.00,VWS V14.01,2013-10-18 18:38:00,
2013-10-18 14:43:00,66.1,49.3,29.86,ENE,60,0.0,3.4,55,0.00,,FEW046,0.00,VWS V14.01,2013-10-18 18:43:00,
2013-10-18 14:48:00,65.9,48.0,29.86,NNE,20,0.0,9.3,52,0.00,,FEW046,0.00,VWS V14.01,2013-10-18 18:48:00,
2013-10-18 14:53:00,65.9,48.7,29.86,SW,224,0.0,2.9,54,0.00,,FEW046,0.00,VWS V14.01,2013-10-18 18:53:00,
2013-10-18 14:58:00,66.0,47.5,29.86,ESE,120,0.0,6.0,51,0.00,,FEW046,0.00,VWS V14.01,2013-10-18 18:58:00,
2013-10-18 15:03:00,65.9,46.8,29.87,WNW,294,4.8,8.0,50,0.00,,CLR,0.00,VWS V14.01,2013-10-18 19:03:00,
2013-10-18 15:08:00,66.1,48.4,29.86,WNW,294,0.0,8.0,53,0.00,,CLR,0.00,VWS V14.01,2013-10-18 19:08:00,
2013-10-18 15:13:00,66.1,48.5,29.86,South,186,0.0,5.2,53,0.00,,CLR,0.00,VWS V14.01,2013-10-18 19:13:00,
2013-10-18 15:18:00,65.9,47.6,29.86,SSW,200,0.0,9.3,52,0.00,,CLR,0.00,VWS V14.01,2013-10-18 19:18:00,
2013-10-18 15:24:00,65.4,46.1,29.86,SW,229,0.0,8.4,50,0.00,,CLR,0.00,VWS V14.01,2013-10-18 19:24:00,
2013-10-18 15:29:00,65.7,47.0,29.86,ESE,122,0.0,9.8,51,0.00,,CLR,0.00,VWS V14.01,2013-10-18 19:29:00,
2013-10-18 15:34:00,65.8,47.0,29.86,WSW,240,0.0,7.6,51,0.00,,CLR,0.00,VWS V14.01,2013-10-18 19:34:00,
2013-10-18 15:39:00,66.1,49.8,29.86,WSW,240,0.0,7.6,56,0.00,,CLR,0.00,VWS V14.01,2013-10-18 19:39:00,
2013-10-18 15:44:00,66.0,47.4,29.86,WNW,302,0.0,9.3,51,0.00,,CLR,0.00,VWS V14.01,2013-10-18 19:44:00,
2013-10-18 15:50:00,65.8,48.9,29.86,South,179,0.0,9.3,54,0.00,,CLR,0.00,VWS V14.01,2013-10-18 19:50:00,
2013-10-18 15:55:00,65.7,47.9,29.86,South,179,0.0,0.0,53,0.00,,CLR,0.00,VWS V14.01,2013-10-18 19:55:00,
2013-10-18 16:00:00,65.5,47.4,29.86,South,179,0.0,0.0,52,0.00,,CLR,0.00,VWS V14.01,2013-10-18 20:00:00,
2013-10-18 16:05:00,65.3,47.4,29.86,SSE,167,0.0,8.5,52,0.00,,CLR,0.00,VWS V14.01,2013-10-18 20:05:00,
2013-10-18 16:10:00,65.2,47.0,29.86,SSE,167,0.0,8.5,52,0.00,,CLR,0.00,VWS V14.01,2013-10-18 20:10:00,
2013-10-18 16:15:00,65.1,46.0,29.86,West,274,6.7,7.2,50,0.00,,CLR,0.00,VWS V14.01,2013-10-18 20:15:00,
2013-10-18 16:20:00,65.1,47.3,29.86,West,277,11.4,11.4,52,0.00,,CLR,0.00,VWS V14.01,2013-10-18 20:20:00,
2013-10-18 16:25:00,65.0,46.7,29.86,South,181,0.0,4.3,52,0.00,,CLR,0.00,VWS V14.01,2013-10-18 20:25:00,
2013-10-18 16:30:00,64.8,45.4,29.87,SW,228,3.5,8.5,49,0.00,,CLR,0.00,VWS V14.01,2013-10-18 20:30:00,
2013-10-18 16:35:00,64.9,46.0,29.86,ENE,66,1.2,5.2,50,0.00,,CLR,0.00,VWS V14.01,2013-10-18 20:35:00,
2013-10-18 16:40:00,64.8,47.4,29.87,NW,316,0.0,7.3,53,0.00,,CLR,0.00,VWS V14.01,2013-10-18 20:40:00,
2013-10-18 16:46:00,64.6,46.5,29.87,WSW,249,0.0,8.1,52,0.00,,CLR,0.00,VWS V14.01,2013-10-18 20:46:00,
2013-10-18 16:51:00,64.3,46.3,29.87,South,191,0.0,8.1,52,0.00,,CLR,0.00,VWS V14.01,2013-10-18 20:51:00,
2013-10-18 16:56:00,64.3,46.1,29.87,WSW,253,0.0,8.5,52,0.00,,CLR,0.00,VWS V14.01,2013-10-18 20:56:00,
2013-10-18 17:01:00,64.2,45.9,29.87,SW,219,0.0,8.5,51,0.00,,CLR,0.00,VWS V14.01,2013-10-18 21:01:00,
2013-10-18 17:06:00,64.2,47.2,29.87,SW,219,0.0,0.0,54,0.00,,CLR,0.00,VWS V14.01,2013-10-18 21:06:00,
2013-10-18 17:11:00,64.0,46.0,29.87,SSE,152,0.0,6.7,52,0.00,,CLR,0.00,VWS V14.01,2013-10-18 21:11:00,
2013-10-18 17:16:00,63.8,46.4,29.87,WSW,246,0.0,2.3,53,0.00,,CLR,0.00,VWS V14.01,2013-10-18 21:16:00,
2013-10-18 17:21:00,63.6,46.3,29.87,SW,231,0.0,6.2,53,0.00,,CLR,0.00,VWS V14.01,2013-10-18 21:21:00,
2013-10-18 17:26:00,63.5,46.6,29.87,SW,231,0.0,0.0,54,0.00,,CLR,0.00,VWS V14.01,2013-10-18 21:26:00,
2013-10-18 17:31:00,63.2,48.0,29.87,SW,231,0.0,0.0,58,0.00,,CLR,0.00,VWS V14.01,2013-10-18 21:31:00,
2013-10-18 17:36:00,62.7,49.2,29.87,SW,231,0.0,0.0,61,0.00,,CLR,0.00,VWS V14.01,2013-10-18 21:36:00,
2013-10-18 17:41:00,61.9,50.0,29.88,SSW,198,0.0,0.0,65,0.00,,CLR,0.00,VWS V14.01,2013-10-18 21:41:00,
2013-10-18 17:46:00,61.5,48.1,29.88,SSW,198,0.0,0.0,61,0.00,,CLR,0.00,VWS V14.01,2013-10-18 21:46:00,
2013-10-18 17:51:00,61.2,48.3,29.88,SSW,198,0.0,0.0,62,0.00,,CLR,0.00,VWS V14.01,2013-10-18 21:51:00,
2013-10-18 17:56:00,60.8,49.4,29.89,SSW,198,0.0,0.0,66,0.00,,CLR,0.00,VWS V14.01,2013-10-18 21:56:00,
2013-10-18 18:01:00,60.5,49.4,29.89,SSW,198,0.0,0.0,67,0.00,,CLR,0.00,VWS V14.01,2013-10-18 22:01:00,
2013-10-18 18:06:00,60.1,49.3,29.89,SSW,198,0.0,0.0,67,0.00,,CLR,0.00,VWS V14.01,2013-10-18 22:06:00,
2013-10-18 18:11:00,59.5,48.8,29.90,SSW,198,0.0,0.0,68,0.00,,CLR,0.00,VWS V14.01,2013-10-18 22:11:00,
2013-10-18 18:16:00,59.2,48.6,29.90,SSW,198,0.0,0.0,68,0.00,,CLR,0.00,VWS V14.01,2013-10-18 22:16:00,
2013-10-18 18:21:00,58.7,49.2,29.90,SSW,198,0.0,0.0,71,0.00,,CLR,0.00,VWS V14.01,2013-10-18 22:21:00,
2013-10-18 18:26:00,58.1,48.8,29.90,SSW,198,0.0,0.0,71,0.00,,CLR,0.00,VWS V14.01,2013-10-18 22:26:00,
2013-10-18 18:31:00,57.5,48.6,29.91,SSW,198,0.0,0.0,72,0.00,,CLR,0.00,VWS V14.01,2013-10-18 22:31:00,
2013-10-18 18:37:00,56.9,47.9,29.91,SSW,198,0.0,0.0,72,0.00,,CLR,0.00,VWS V14.01,2013-10-18 22:37:00,
2013-10-18 18:42:00,56.3,47.5,29.91,SSW,198,0.0,0.0,72,0.00,,CLR,0.00,VWS V14.01,2013-10-18 22:42:00,
2013-10-18 18:47:00,55.9,47.5,29.91,SSW,198,0.0,0.0,73,0.00,,CLR,0.00,VWS V14.01,2013-10-18 22:47:00,
2013-10-18 18:52:00,55.5,47.6,29.91,SSW,198,0.0,0.0,75,0.00,,CLR,0.00,VWS V14.01,2013-10-18 22:52:00,
2013-10-18 18:57:00,54.9,47.3,29.92,SSW,198,0.0,0.0,76,0.00,,CLR,0.00,VWS V14.01,2013-10-18 22:57:00,
2013-10-18 19:02:00,54.5,47.3,29.92,SSW,198,0.0,0.0,77,0.00,,CLR,0.00,VWS V14.01,2013-10-18 23:02:00,
2013-10-18 19:07:00,54.0,47.1,29.92,SSW,198,0.0,0.0,78,0.00,,CLR,0.00,VWS V14.01,2013-10-18 23:07:00,
2013-10-18 19:12:00,53.6,47.1,29.92,SSW,198,0.0,0.0,79,0.00,,CLR,0.00,VWS V14.01,2013-10-18 23:12:00,
2013-10-18 19:17:00,53.2,47.3,29.92,SSW,198,0.0,0.0,80,0.00,,CLR,0.00,VWS V14.01,2013-10-18 23:17:00,
2013-10-18 19:22:00,52.7,47.1,29.93,SSW,198,0.0,0.0,81,0.00,,CLR,0.00,VWS V14.01,2013-10-18 23:22:00,
2013-10-18 19:27:00,52.3,47.1,29.93,SSW,198,0.0,0.0,82,0.00,,CLR,0.00,VWS V14.01,2013-10-18 23:27:00,
2013-10-18 19:32:00,52.0,47.1,29.93,SSW,198,0.0,0.0,83,0.00,,CLR,0.00,VWS V14.01,2013-10-18 23:32:00,
2013-10-18 19:37:00,51.6,46.8,29.93,SSW,198,0.0,0.0,84,0.00,,CLR,0.00,VWS V14.01,2013-10-18 23:37:00,
2013-10-18 19:42:00,51.2,46.6,29.93,SSW,198,0.0,0.0,84,0.00,,CLR,0.00,VWS V14.01,2013-10-18 23:42:00,
2013-10-18 19:47:00,51.0,46.5,29.93,SSW,198,0.0,0.0,84,0.00,,CLR,0.00,VWS V14.01,2013-10-18 23:47:00,
2013-10-18 19:52:00,50.7,46.7,29.94,SSW,198,0.0,0.0,86,0.00,,CLR,0.00,VWS V14.01,2013-10-18 23:52:00,
2013-10-18 19:57:00,50.5,46.8,29.94,SSW,198,0.0,0.0,87,0.00,,CLR,0.00,VWS V14.01,2013-10-18 23:57:00,
2013-10-18 20:02:00,50.2,46.8,29.94,SSW,198,0.0,0.0,88,0.00,,CLR,0.00,VWS V14.01,2013-10-19 00:02:00,
2013-10-18 20:07:00,50.0,46.7,29.94,SSW,198,0.0,0.0,88,0.00,,CLR,0.00,VWS V14.01,2013-10-19 00:07:00,
2013-10-18 20:12:00,49.8,46.6,29.95,SSW,198,0.0,0.0,89,0.00,,CLR,0.00,VWS V14.01,2013-10-19 00:12:00,
2013-10-18 20:17:00,49.5,46.4,29.95,SSW,198,0.0,0.0,89,0.00,,CLR,0.00,VWS V14.01,2013-10-19 00:17:00,
2013-10-18 20:23:00,49.5,46.5,29.95,SSW,198,0.0,0.0,89,0.00,,CLR,0.00,VWS V14.01,2013-10-19 00:23:00,
2013-10-18 20:28:00,49.2,46.4,29.95,SSW,198,0.0,0.0,90,0.00,,CLR,0.00,VWS V14.01,2013-10-19 00:28:00,
2013-10-18 20:33:00,49.1,46.4,29.95,SSW,198,0.0,0.0,90,0.00,,CLR,0.00,VWS V14.01,2013-10-19 00:33:00,
2013-10-18 20:38:00,49.0,46.5,29.95,SSW,198,0.0,0.0,91,0.00,,CLR,0.00,VWS V14.01,2013-10-19 00:38:00,
2013-10-18 20:43:00,48.8,46.2,29.95,SSW,198,0.0,0.0,91,0.00,,CLR,0.00,VWS V14.01,2013-10-19 00:43:00,
2013-10-18 20:48:00,48.7,46.2,29.95,SSW,198,0.0,0.0,91,0.00,,CLR,0.00,VWS V14.01,2013-10-19 00:48:00,
2013-10-18 20:53:00,48.5,46.0,29.95,SSW,198,0.0,0.0,91,0.00,,CLR,0.00,VWS V14.01,2013-10-19 00:53:00,
2013-10-18 20:58:00,48.5,46.0,29.95,SSW,198,0.0,0.0,91,0.00,,CLR,0.00,VWS V14.01,2013-10-19 00:58:00,
2013-10-18 21:03:00,48.4,46.0,29.95,SSW,198,0.0,0.0,91,0.00,,CLR,0.00,VWS V14.01,2013-10-19 01:03:00,
2013-10-18 21:08:00,48.4,46.0,29.95,SSW,198,0.0,0.0,91,0.00,,CLR,0.00,VWS V14.01,2013-10-19 01:08:00,
2013-10-18 21:13:00,48.2,45.8,29.96,SSW,198,0.0,0.0,92,0.00,,CLR,0.00,VWS V14.01,2013-10-19 01:13:00,
2013-10-18 21:18:00,48.2,45.8,29.96,SSW,198,0.0,0.0,92,0.00,,CLR,0.00,VWS V14.01,2013-10-19 01:18:00,
2013-10-18 21:23:00,48.1,45.8,29.96,SSW,198,0.0,0.0,92,0.00,,CLR,0.00,VWS V14.01,2013-10-19 01:23:00,
2013-10-18 21:28:00,48.0,45.7,29.96,SSW,198,0.0,0.0,92,0.00,,CLR,0.00,VWS V14.01,2013-10-19 01:28:00,
2013-10-18 21:33:00,48.1,45.8,29.96,SSW,198,0.0,0.0,92,0.00,,CLR,0.00,VWS V14.01,2013-10-19 01:33:00,
2013-10-18 21:38:00,48.1,45.9,29.96,SSW,198,0.0,0.0,92,0.00,,CLR,0.00,VWS V14.01,2013-10-19 01:38:00,
2013-10-18 21:43:00,48.0,45.8,29.97,SSW,198,0.0,0.0,92,0.00,,CLR,0.00,VWS V14.01,2013-10-19 01:43:00,
2013-10-18 21:48:00,47.8,45.6,29.97,SSW,198,0.0,0.0,92,0.00,,CLR,0.00,VWS V14.01,2013-10-19 01:48:00,
2013-10-18 21:53:00,47.8,45.6,29.97,SSW,198,0.0,0.0,92,0.00,,CLR,0.00,VWS V14.01,2013-10-19 01:53:00,
2013-10-18 21:58:00,47.6,45.4,29.97,SSW,198,0.0,0.0,92,0.00,,CLR,0.00,VWS V14.01,2013-10-19 01:58:00,
2013-10-18 22:03:00,47.6,45.4,29.97,SSW,198,0.0,0.0,92,0.00,,CLR,0.00,VWS V14.01,2013-10-19 02:03:00,
2013-10-18 22:08:00,47.5,45.3,29.97,SSW,198,0.0,0.0,92,0.00,,CLR,0.00,VWS V14.01,2013-10-19 02:08:00,
2013-10-18 22:13:00,47.4,45.2,29.97,SSW,198,0.0,0.0,92,0.00,,CLR,0.00,VWS V14.01,2013-10-19 02:13:00,
2013-10-18 22:18:00,47.2,45.1,29.97,SSW,198,0.0,0.0,92,0.00,,CLR,0.00,VWS V14.01,2013-10-19 02:18:00,
2013-10-18 22:23:00,47.1,45.0,29.98,SSW,198,0.0,0.0,92,0.00,,CLR,0.00,VWS V14.01,2013-10-19 02:23:00,
2013-10-18 22:29:00,47.0,44.9,29.98,SSW,198,0.0,0.0,92,0.00,,CLR,0.00,VWS V14.01,2013-10-19 02:29:00,
2013-10-18 22:34:00,46.9,44.8,29.98,SSW,198,0.0,0.0,92,0.00,,CLR,0.00,VWS V14.01,2013-10-19 02:34:00,
2013-10-18 22:39:00,46.7,44.7,29.98,SSW,198,0.0,0.0,93,0.00,,CLR,0.00,VWS V14.01,2013-10-19 02:39:00,
2013-10-18 22:44:00,46.7,44.7,29.98,SSW,198,0.0,0.0,93,0.00,,CLR,0.00,VWS V14.01,2013-10-19 02:44:00,
2013-10-18 22:49:00,46.5,44.5,29.98,SSW,198,0.0,0.0,93,0.00,,CLR,0.00,VWS V14.01,2013-10-19 02:49:00,
2013-10-18 22:54:00,46.4,44.5,29.98,SSW,198,0.0,0.0,93,0.00,,CLR,0.00,VWS V14.01,2013-10-19 02:54:00,
2013-10-18 22:59:00,46.3,44.4,29.99,SSW,198,0.0,0.0,93,0.00,,CLR,0.00,VWS V14.01,2013-10-19 02:59:00,
2013-10-18 23:04:00,46.1,44.2,29.99,SSW,198,0.0,0.0,93,0.00,,CLR,0.00,VWS V14.01,2013-10-19 03:04:00,
2013-10-18 23:09:00,46.0,44.2,29.99,SSW,198,0.0,0.0,93,0.00,,CLR,0.00,VWS V14.01,2013-10-19 03:09:00,
2013-10-18 23:14:00,45.8,44.0,29.99,SSW,198,0.0,0.0,93,0.00,,CLR,0.00,VWS V14.01,2013-10-19 03:14:00,
2013-10-18 23:19:00,45.8,44.0,29.99,SSW,198,0.0,0.0,94,0.00,,CLR,0.00,VWS V14.01,2013-10-19 03:19:00,
2013-10-18 23:24:00,45.6,43.9,29.99,SSW,198,0.0,0.0,94,0.00,,CLR,0.00,VWS V14.01,2013-10-19 03:24:00,
2013-10-18 23:29:00,45.4,43.7,29.99,SSW,198,0.0,0.0,94,0.00,,CLR,0.00,VWS V14.01,2013-10-19 03:29:00,
2013-10-18 23:34:00,45.3,43.7,29.99,SSW,198,0.0,0.0,94,0.00,,CLR,0.00,VWS V14.01,2013-10-19 03:34:00,
2013-10-18 23:39:00,45.2,43.6,29.99,SSW,198,0.0,0.0,94,0.00,,CLR,0.00,VWS V14.01,2013-10-19 03:39:00,
2013-10-18 23:44:00,45.1,43.5,30.00,SSW,198,0.0,0.0,94,0.00,,CLR,0.00,VWS V14.01,2013-10-19 03:44:00,
2013-10-18 23:49:00,45.0,43.5,30.00,SSW,198,0.0,0.0,94,0.00,,CLR,0.00,VWS V14.01,2013-10-19 03:49:00,
2013-10-18 23:54:00,44.9,43.4,30.00,SSW,198,0.0,0.0,94,0.00,,CLR,0.00,VWS V14.01,2013-10-19 03:54:00,
2013-10-18 23:59:00,44.8,43.3,30.00,SSW,198,0.0,0.0,94,0.00,,CLR,0.00,VWS V14.01,2013-10-19 03:59:00,